Portada
METAR-TAF:

METAR-TAF

Aeroports :

Fillmore County Airport

Preston, Minnesota, Estats Units d'Amèrica

latitud: 43-40-36N, longitud: 092-10-47W, altitud: 389 m

Observació

L'informe es va fer fa 26 minuts, a les 11:35 UTC
Vent 13 kt del Sud-Oest amb ràfegues de 20 kt
Temperatura 1°C
Humitat 80%
Pressió 1016 hPa
Visibilitat: 16.1 km
Cel clar

METAR: KFKA 161135Z AUTO 23013G20KT 10SM CLR 01/M02 A3000 RMK AO2 T00101025

Hora: 07:01 (12:01 UTC)


TAF: manca

Observacions i pronòstics meteorològics de més de 4000 aeroports (METAR i TAF).

Les estacions disponibles són els punts grocs i vermells al mapa.

Posi el ratolí al punt desitjat per veure el nom de l'estació.

Feu clic per veure les observacions i els pronòstics meteorològics.

Per canviar el mapa: feu clic els botons verds amb una creu de color negre per apropar; al botó verd amb un guió per allunyar la imatge; o en les fletxes verdes per a mapes adjacents.


METAR-TAF: